SCP
0 0 0 0 0 0 0 0 0 0 0 0 0 0 0 1 1 1 1 1 1 1 1 2 2 2 2 2 2 2 2 2 2 2 1 1 1 1 1 1 1 1 1 1
0 0 0 0 0 0 0 0 0 0 0 0 0 0 0 1 1 1 1 1 1 1 1 2 2 2 2 2 2 2 2 2 2 2 2 1 1 1 1 1 1 1 1 1
0 0 0 0 0 0 0 0 0 0 0 0 0 0 0 0 1 1 1 1 1 1 1 2 2 2 2 2 2 2 2 2 2 2 2 2 1 1 1 1 1 1 1 1
0 0 0 0 0 0 0 0 0 0 0 0 0 0 0 0 1 1 1 1 1 1 1 1 2 2 2 2 2 2 2 2 2 2 2 1 1 1 1 1 1 1 1 1
0 0 0 0 0 0 0 0 0 0 0 0 0 0 0 1 1 1 1 1 1 1 1 1 2 2 2 2 2 2 3 2 2 2 2 2 1 1 1 1 1 1 1 1
0 0 0 0 0 0 0 0 0 0 0 0 0 0 0 1 1 1 1 1 1 1 1 1 2 2 2 2 2 2 3 2 2 2 2 2 2 1 1 1 1 1 1 1
0 0 0 0 0 0 0 0 0 0 0 0 1 1 1 1 1 1 1 1 1 1 2 2 2 2 2 2 2 2 2 2 2 2 2 2 2 1 1 1 1 1 1 1
0 0 0 0 0 0 1 1 1 1 1 1 1 1 1 1 1 1 1 1 1 2 2 2 2 2 2 2 2 2 2 2 2 2 2 2 2 1 1 1 1 1 1 0
0 0 0 0 1 1 1 1 1 1 1 1 1 1 1 1 1 1 1 1 1 2 2 1 2 2 2 2 2 2 2 2 2 2 2 2 2 2 1 1 1 1 0 0
0 0 0 0 1 1 1 1 1 1 1 1 1 1 1 1 1 1 1 1 1 2 2 1 1 2 2 2 2 2 2 2 2 2 2 2 2 1 1 1 1 1 1 0
0 0 0 0 0 0 1 1 1 1 1 1 1 1 1 1 1 1 1 1 1 1 1 1 1 1 2 2 2 2 2 2 2 2 2 1 1 1 1 1 1 0 0 0
0 0 0 0 0 0 0 0 0 1 1 1 0 0 0 1 1 1 1 1 1 1 1 1 1 1 2 2 2 2 2 2 1 1 1 1 1 1 0 0 0 0 0 0
0 0 0 0 0 0 0 0 0 1 1 0 0 0 0 1 1 1 1 1 1 1 1 1 1 1 1 2 2 2 2 1 1 1 1 1 1 1 0 0 0 0 0 0
0 0 0 0 0 0 0 0 0 1 0 0 0 0 0 0 1 1 1 1 1 1 1 1 1 1 1 1 2 2 2 1 1 1 1 1 1 1 1 0 0 0 0 0
0 0 0 0 0 0 0 0 0 0 0 0 0 0 0 0 1 1 1 1 1 1 1 1 1 1 1 1 1 1 1 1 1 1 1 1 1 1 1 1 1 0 0 0
0 0 0 0 0 0 0 0 0 0 0 0 0 0 0 0 1 1 1 1 1 1 1 1 1 1 1 1 1 1 1 1 1 1 1 1 1 1 1 1 1 1 0 0
0 0 0 0 0 0 0 0 0 0 0 0 0 0 0 0 0 0 0 0 0 0 0 1 1 1 1 1 1 1 1 1 0 1 1 1 1 1 1 1 0 0 0 0
0 0 0 0 0 0 0 0 0 0 0 0 0 0 0 0 0 0 0 0 0 0 0 0 0 0 1 1 1 0 0 0 0 0 0 0 0 0 0 0 0 0 0 0
0 0 0 0 0 0 0 0 0 0 0 0 0 0 0 0 0 0 0 0 0 0 0 0 0 0 0 0 0 0 0 0 0 0 0 0 0 0 0 0 0 0 0 0
0 0 0 0 0 0 0 0 0 0 0 0 0 0 0 0 0 0 0 0 0 0 0 0 0 0 0 0 0 0 0 0 0 0 0 0 0 0 0 0 0 0 0 0
0 0 0 0 0 0 0 0 0 0 0 0 0 0 0 0 0 0 0 0 0 0 0 0 0 0 0 0 0 0 0 0 0 0 0 0 0 0 0 0 0 0 0 0
0 0 0 0 0 0 0 0 0 0 0 0 0 0 0 0 0 0 0 0 0 0 0 0 0 0 0 0 0 0 0 0 0 0 0 0 0 0 0 0 0 0 0 0
0 0 0 0 0 0 0 0 0 0 0 0 0 0 0 0 0 0 0 0 0 0 0 0 0 0 0 0 0 0 0 0 0 0 0 0 0 0 0 0 0 0 0 0
0 0 0 0 0 0 0 0 0 0 0 0 0 0 0 0 0 0 0 0 0 0 0 0 0 0 0 0 0 0 0 0 0 0 0 0 0 0 0 0 0 0 0 0
0 0 0 0 0 0 0 0 0 0 0 0 0 0 0 0 0 0 0 0 0 0 0 0 0 0 0 0 0 0 0 0 0 0 0 0 0 0 0 0 0 0 0 0
0 0 0 0 0 0 0 0 0 0 0 0 0 0 0 0 0 0 0 0 0 0 0 0 0 0 0 0 0 0 0 0 0 0 0 0 0 0 0 0 0 0 0 0
0 0 0 0 0 0 0 0 0 0 0 0 0 0 0 0 0 0 0 0 0 0 0 0 0 0 0 0 0 0 0 0 0 0 0 0 0 0 0 0 0 0 0 0
Wind_Speed
6 4 5 7 9 10 12 11 11 9 7 2 1 1 1 1 2 2 3 3 3 3 4 4 5 5 5 5 6 6 7 7 8 7 7 6 6 6 5 5 5 4 4 4
8 7 7 9 9 10 10 10 10 9 6 1 2 2 1 1 1 1 1 2 2 3 3 4 5 5 5 5 5 6 7 7 7 7 7 6 6 6 6 5 5 5 4 4
9 7 9 12 9 10 9 7 8 9 2 1 1 1 1 1 1 1 1 1 2 2 3 3 5 5 6 5 5 6 7 6 7 7 7 7 6 6 6 5 5 4 4 4
7 7 13 2 1 3 5 4 3 2 1 1 2 1 1 2 2 3 3 2 2 2 3 3 4 5 5 5 6 6 6 6 7 7 7 7 6 6 6 5 5 4 4 4
8 11 9 5 3 3 5 5 2 2 0 2 2 2 3 4 5 5 5 4 3 3 3 3 3 5 6 6 5 5 5 6 6 6 7 7 6 6 5 5 5 5 4 4
8 11 11 3 4 1 5 6 3 0 1 1 2 5 1 5 6 6 6 5 4 3 2 3 3 5 6 6 6 6 6 5 5 5 6 7 7 6 5 5 5 5 4 4
11 10 6 4 1 4 8 1 3 1 1 2 3 5 4 4 5 5 5 5 4 3 2 2 3 5 6 6 7 6 6 6 6 6 7 7 7 6 6 5 5 4 4 3
8 11 5 4 1 2 4 5 2 2 3 4 4 3 3 4 5 5 5 5 4 3 2 1 2 4 5 6 5 5 6 6 6 6 6 6 7 6 6 6 6 5 4 4
4 2 5 3 3 4 4 3 3 3 3 3 4 3 3 4 4 5 5 5 4 3 2 2 2 3 5 4 4 5 6 6 6 6 5 6 7 7 7 6 5 5 5 4
4 2 1 2 2 3 3 3 4 3 4 4 4 4 4 4 4 4 5 5 4 3 2 2 2 2 3 4 4 5 6 5 5 5 6 5 5 5 5 5 5 4 4 4
7 4 3 1 2 4 4 4 4 4 4 4 4 4 4 4 4 4 4 4 3 3 2 3 2 2 2 3 4 5 5 5 4 5 6 5 4 2 3 2 1 3 3 3
6 3 5 4 4 5 5 5 5 5 5 4 4 3 4 4 4 4 4 4 3 3 2 2 2 2 2 3 5 6 5 5 4 4 5 5 5 4 5 3 4 3 3 1
6 6 6 6 6 6 5 6 6 5 5 5 3 3 3 3 3 4 4 3 3 3 3 2 2 2 2 2 4 5 5 5 4 4 5 5 5 6 5 4 4 3 3 2
6 6 7 6 6 5 5 6 6 5 5 4 3 3 3 3 3 3 3 3 3 3 2 2 1 1 1 2 3 4 4 4 4 4 4 5 5 4 4 5 5 4 4 5
7 7 7 6 6 6 6 5 5 4 4 4 3 4 4 4 4 3 3 3 3 3 2 2 1 1 1 1 3 4 3 3 3 4 4 4 4 4 3 3 3 3 3 5
7 7 6 6 6 6 6 6 5 4 4 4 4 4 4 4 4 4 3 3 3 3 3 2 1 1 1 1 3 3 3 4 3 4 4 4 4 4 3 3 3 3 3 3
7 6 6 6 6 6 6 5 5 5 5 4 4 4 4 4 4 4 4 3 3 2 2 1 1 1 1 1 1 1 2 3 4 4 4 3 3 3 3 2 2 2 2 2
5 6 6 6 5 5 5 4 4 5 4 4 4 4 4 4 4 3 3 2 1 1 1 0 1 1 1 1 1 1 2 2 3 3 3 3 2 2 3 2 2 2 2 4
5 6 6 5 4 4 4 4 4 4 4 3 2 3 3 2 2 2 2 1 1 1 0 1 1 1 1 2 1 2 2 2 3 3 3 3 3 2 2 2 2 2 2 3
4 4 4 4 3 3 3 3 4 4 3 2 2 3 3 3 3 2 1 1 1 1 1 2 1 1 2 2 0 2 2 3 3 3 3 3 2 2 2 2 2 2 1 1
2 2 2 2 2 3 3 3 3 3 3 2 2 3 2 3 3 2 1 1 2 2 2 2 1 1 2 1 1 1 2 3 3 2 2 2 2 1 1 1 1 1 1 1
2 2 3 3 2 2 3 3 3 3 3 2 3 2 2 2 2 1 1 2 2 2 1 1 2 3 2 1 1 2 3 3 3 2 2 1 1 1 1 1 1 1 1 1
2 2 2 2 2 2 2 2 2 2 2 1 1 1 1 1 1 1 2 3 2 2 2 3 5 5 2 0 2 3 4 4 3 2 2 1 1 1 1 1 1 1 1 1
2 2 3 3 2 2 2 3 3 3 3 2 2 2 2 2 2 3 4 4 4 3 4 5 6 4 1 2 3 3 4 3 2 2 2 2 2 1 1 1 1 1 1 1
2 3 2 2 2 2 3 3 3 4 4 4 5 5 3 3 4 4 4 5 4 3 4 5 5 3 2 3 4 3 3 3 3 2 2 2 2 2 2 2 2 1 1 1
3 2 2 2 2 2 2 2 3 3 4 4 4 4 4 4 5 4 4 4 5 4 4 4 3 2 3 3 3 3 3 4 3 2 2 2 2 2 2 2 2 2 1 1
2 2 2 2 2 2 2 3 4 4 4 4 5 4 4 4 4 5 5 4 4 4 4 3 3 3 3 4 4 4 3 3 3 2 2 2 2 2 2 2 1 1 1 1
Wind_Direction
254 253 230 223 217 216 231 250 257 252 248 274 315 302 359 103 136 149 150 155 162 166 168 174 172 174 177 178 175 177 181 181 178 177 178 176 172 172 171 173 173 169 171 176
226 224 228 234 231 227 234 242 248 252 246 14 11 27 52 82 128 164 178 182 174 176 174 179 181 179 177 180 175 177 182 180 171 171 170 174 176 174 169 169 171 174 177 180
226 208 228 230 230 230 227 236 246 246 253 37 345 351 324 322 329 349 328 265 216 196 196 192 192 187 186 181 176 179 182 180 172 172 172 174 175 171 173 172 174 181 185 186
229 211 234 199 106 242 228 222 248 278 9 321 320 307 316 9 13 348 335 321 291 243 208 200 196 188 187 179 177 179 178 179 178 175 174 174 173 173 173 176 181 183 187 188
235 229 231 182 175 209 220 214 214 229 282 332 344 221 148 60 13 346 331 322 305 276 238 202 196 184 179 179 179 179 177 178 180 179 177 174 175 179 176 175 176 181 187 190
235 244 239 174 125 203 241 208 122 243 266 323 287 249 96 19 349 340 340 333 317 283 240 203 192 184 180 178 179 184 183 176 174 176 176 180 176 179 177 177 178 181 177 181
235 241 239 67 81 208 232 98 62 341 302 284 310 336 348 332 336 341 338 327 314 290 252 213 197 189 188 188 189 185 176 171 174 175 180 179 173 174 174 176 172 175 173 178
234 239 220 63 210 264 1 19 360 329 321 319 325 331 327 331 333 335 338 335 328 316 294 265 220 202 198 199 191 177 172 173 172 176 182 171 169 168 172 173 172 176 181 187
277 313 50 28 5 359 331 322 320 313 324 314 305 312 319 324 328 333 335 338 333 321 306 282 241 221 213 200 182 175 173 172 168 168 171 171 172 170 174 179 185 181 184 189
259 221 13 352 349 343 337 327 315 312 306 298 298 303 308 316 321 328 333 333 333 325 321 311 288 258 232 206 183 178 178 172 166 165 165 166 171 172 178 181 184 180 184 193
251 263 274 265 321 337 336 327 318 309 303 299 296 297 303 305 311 319 326 328 330 327 336 316 298 276 246 207 186 178 173 165 169 171 157 155 152 139 176 159 176 194 193 192
274 280 282 292 312 313 310 311 308 307 309 307 299 295 301 306 315 317 319 321 321 319 317 309 301 286 266 215 189 178 171 164 171 166 156 154 152 138 71 89 93 82 51 24
290 293 293 286 287 293 298 300 299 298 296 295 301 299 299 305 310 311 313 317 322 321 316 308 302 293 274 208 185 181 178 168 171 169 164 165 167 168 158 135 122 133 145 135
274 271 265 268 278 286 292 291 291 291 284 283 292 294 295 298 299 304 314 324 328 327 321 311 308 319 299 197 179 176 175 159 168 171 172 173 173 173 170 165 160 157 159 162
264 263 267 274 275 276 279 280 282 292 297 289 285 286 292 294 295 305 314 319 322 317 315 321 328 350 333 169 156 156 162 162 175 172 170 164 161 162 164 167 161 147 140 144
269 261 260 262 266 272 278 282 282 288 295 295 291 284 287 289 291 292 294 299 300 303 305 307 332 351 25 129 131 139 139 134 170 174 164 161 162 161 160 164 161 160 160 147
266 262 263 263 270 278 282 288 287 290 293 286 286 282 277 278 279 279 281 284 287 281 279 285 333 13 76 112 130 130 137 140 161 171 158 156 157 156 155 161 164 167 158 132
270 278 281 275 273 281 288 295 298 300 300 290 287 283 280 276 278 279 276 269 272 283 288 288 61 89 110 125 151 149 162 168 165 145 138 138 139 149 153 163 168 171 159 144
276 278 279 278 277 280 289 297 300 303 304 298 290 289 291 292 287 281 275 276 273 262 343 54 69 139 120 110 137 159 161 153 145 139 140 140 163 155 156 162 164 164 156 153
286 280 273 278 282 287 296 304 308 308 305 295 284 291 298 307 308 301 302 311 323 360 73 66 99 102 109 107 241 149 144 141 137 136 140 148 157 157 162 156 151 143 147 158
316 313 302 298 305 315 318 318 316 314 315 304 293 295 303 307 308 308 309 342 22 43 68 95 119 98 93 76 247 156 137 135 132 131 137 147 152 148 141 134 133 129 138 149
6 350 331 319 318 320 320 319 319 321 320 307 305 309 308 308 316 354 61 42 46 41 48 89 84 68 52 311 162 109 107 107 106 106 108 112 119 112 109 106 112 120 122 121
359 355 341 337 334 327 328 335 341 342 345 339 337 331 342 10 26 76 79 66 59 44 47 63 65 69 27 101 78 84 88 92 96 102 105 105 101 105 120 131 135 128 114 116
1 6 12 13 14 22 28 34 41 46 48 52 53 49 59 87 85 72 77 83 56 50 64 67 68 60 46 78 71 73 78 81 83 86 91 91 93 106 124 135 133 120 119 130
34 42 42 32 40 43 49 58 72 73 67 63 66 66 61 64 79 82 82 83 78 74 83 83 75 57 72 73 75 76 77 71 66 72 94 99 104 105 101 93 87 93 101 117
47 51 53 40 39 34 45 57 60 63 68 74 68 63 67 71 79 86 92 94 89 87 83 88 94 95 81 82 84 82 83 94 96 92 85 90 90 85 81 76 74 73 76 66
81 83 79 69 64 50 51 64 69 66 63 68 72 69 69 72 74 76 79 83 85 85 88 92 92 86 83 82 82 82 81 79 75 71 77 76 73 70 77 78 69 70 61 68